Time,TemperatureF,DewpointF,PressureIn,WindDirection,WindDirectionDegrees,WindSpeedMPH,WindSpeedGustMPH,Humidity,HourlyPrecipIn,Conditions,Clouds,dailyrainin,SoftwareType,DateUTC
2013-12-05 00:05:00,37.9,23.0,29.70,NNW,344,0.0,0.0,55,0.00,,,0.00,weatherlink.com 1.10,2013-12-05 07:05:00,
2013-12-05 00:20:00,38.0,23.0,29.69,NNW,344,0.0,0.0,55,0.00,,,0.00,weatherlink.com 1.10,2013-12-05 07:20:00,
2013-12-05 00:35:00,38.1,23.0,29.69,North,355,4.0,7.0,54,0.00,,,0.00,weatherlink.com 1.10,2013-12-05 07:35:00,
2013-12-05 00:50:00,37.8,22.0,29.68,NNW,344,1.0,7.0,53,0.00,,,0.00,weatherlink.com 1.10,2013-12-05 07:50:00,
2013-12-05 01:05:00,37.5,23.0,29.68,North,360,5.0,9.0,55,0.00,,,0.00,weatherlink.com 1.10,2013-12-05 08:05:00,
2013-12-05 01:20:00,36.9,23.0,29.68,NNW,346,6.0,7.0,58,0.00,,,0.00,weatherlink.com 1.10,2013-12-05 08:20:00,
2013-12-05 01:35:00,36.4,25.0,29.69,NNW,337,0.0,6.0,63,0.00,,,0.00,weatherlink.com 1.10,2013-12-05 08:35:00,
2013-12-05 01:51:00,35.8,25.0,29.70,North,350,3.0,7.0,65,0.00,,,0.00,weatherlink.com 1.10,2013-12-05 08:51:00,
2013-12-05 02:06:00,35.1,26.0,29.70,North,11,1.0,7.0,69,0.00,,,0.00,weatherlink.com 1.10,2013-12-05 09:06:00,
2013-12-05 02:21:00,34.5,26.0,29.70,NNE,22,4.0,7.0,72,0.00,,,0.00,weatherlink.com 1.10,2013-12-05 09:21:00,
2013-12-05 02:36:00,33.9,27.0,29.70,NNE,18,1.0,7.0,75,0.00,,,0.00,weatherlink.com 1.10,2013-12-05 09:36:00,
2013-12-05 02:51:00,33.3,28.0,29.71,NNW,336,7.0,8.0,80,0.00,,,0.00,weatherlink.com 1.10,2013-12-05 09:51:00,
2013-12-05 03:06:00,32.1,28.0,29.72,NNW,348,0.0,7.0,85,0.00,,,0.00,weatherlink.com 1.10,2013-12-05 10:06:00,
2013-12-05 03:21:00,31.8,29.0,29.72,North,350,0.0,4.0,88,0.00,,,0.00,weatherlink.com 1.10,2013-12-05 10:21:00,
2013-12-05 03:36:00,31.6,29.0,29.72,North,10,0.0,3.0,89,0.00,,,0.00,weatherlink.com 1.10,2013-12-05 10:36:00,
2013-12-05 03:51:00,31.4,29.0,29.71,NNE,17,0.0,4.0,90,0.00,,,0.00,weatherlink.com 1.10,2013-12-05 10:51:00,
2013-12-05 04:06:00,31.2,29.0,29.71,NE,46,0.0,6.0,90,0.00,,,0.00,weatherlink.com 1.10,2013-12-05 11:06:00,
2013-12-05 04:21:00,31.4,29.0,29.72,ENE,57,0.0,4.0,91,0.00,,,0.00,weatherlink.com 1.10,2013-12-05 11:21:00,
2013-12-05 04:36:00,31.5,29.0,29.72,ENE,57,0.0,0.0,91,0.00,,,0.00,weatherlink.com 1.10,2013-12-05 11:36:00,
2013-12-05 04:51:00,31.8,30.0,29.73,ENE,57,0.0,0.0,91,0.00,,,0.00,weatherlink.com 1.10,2013-12-05 11:51:00,
2013-12-05 05:06:00,32.2,30.0,29.72,West,279,0.0,7.0,91,0.00,,,0.00,weatherlink.com 1.10,2013-12-05 12:06:00,
2013-12-05 05:21:00,32.3,30.0,29.72,NE,34,0.0,0.0,91,0.00,,,0.00,weatherlink.com 1.10,2013-12-05 12:21:00,
2013-12-05 05:36:00,32.3,30.0,29.73,NE,34,0.0,0.0,91,0.00,,,0.00,weatherlink.com 1.10,2013-12-05 12:36:00,
2013-12-05 05:51:00,32.3,30.0,29.74,NE,34,0.0,0.0,91,0.00,,,0.00,weatherlink.com 1.10,2013-12-05 12:51:00,
2013-12-05 06:06:00,32.2,30.0,29.72,NE,51,0.0,1.0,92,0.00,,,0.00,weatherlink.com 1.10,2013-12-05 13:06:00,
2013-12-05 06:21:00,32.3,30.0,29.73,ENE,67,0.0,0.0,92,0.00,,,0.00,weatherlink.com 1.10,2013-12-05 13:21:00,
2013-12-05 06:36:00,32.3,30.0,29.74,ENE,67,0.0,0.0,92,0.00,,,0.00,weatherlink.com 1.10,2013-12-05 13:36:00,
2013-12-05 06:51:00,32.4,30.0,29.74,ENE,67,0.0,0.0,92,0.00,,,0.00,weatherlink.com 1.10,2013-12-05 13:51:00,
2013-12-05 07:06:00,32.4,30.0,29.73,ENE,67,0.0,0.0,92,0.00,,,0.00,weatherlink.com 1.10,2013-12-05 14:06:00,
2013-12-05 07:21:00,32.5,31.0,29.74,East,92,0.0,0.0,92,0.00,,,0.00,weatherlink.com 1.10,2013-12-05 14:21:00,
2013-12-05 07:36:00,32.6,31.0,29.75,East,96,0.0,0.0,92,0.00,,,0.00,weatherlink.com 1.10,2013-12-05 14:36:00,
2013-12-05 07:51:00,32.8,31.0,29.75,East,96,0.0,0.0,92,0.00,,,0.00,weatherlink.com 1.10,2013-12-05 14:51:00,
2013-12-05 08:06:00,32.8,31.0,29.76,East,96,0.0,0.0,92,0.00,,,0.00,weatherlink.com 1.10,2013-12-05 15:06:00,
2013-12-05 08:21:00,32.4,30.0,29.76,East,80,0.0,0.0,92,0.00,,,0.00,weatherlink.com 1.10,2013-12-05 15:21:00,
2013-12-05 08:36:00,30.3,28.0,29.76,East,89,0.0,4.0,90,0.00,,,0.00,weatherlink.com 1.10,2013-12-05 15:36:00,
2013-12-05 08:51:00,29.3,27.0,29.76,East,81,0.0,2.0,90,0.00,,,0.00,weatherlink.com 1.10,2013-12-05 15:51:00,
2013-12-05 09:06:00,28.0,25.0,29.77,NE,46,2.0,4.0,89,0.00,,,0.00,weatherlink.com 1.10,2013-12-05 16:06:00,
2013-12-05 09:21:00,27.1,24.0,29.77,ENE,57,1.0,6.0,89,0.00,,,0.00,weatherlink.com 1.10,2013-12-05 16:21:00,
2013-12-05 09:37:00,25.9,23.0,29.77,NE,37,1.0,8.0,90,0.00,,,0.00,weatherlink.com 1.10,2013-12-05 16:37:00,
2013-12-05 09:52:00,25.6,23.0,29.78,ENE,64,2.0,7.0,90,0.00,,,0.00,weatherlink.com 1.10,2013-12-05 16:52:00,
2013-12-05 10:07:00,25.5,23.0,29.78,East,86,2.0,8.0,89,0.00,,,0.00,weatherlink.com 1.10,2013-12-05 17:07:00,
2013-12-05 10:22:00,25.9,23.0,29.78,ENE,76,4.0,7.0,90,0.00,,,0.00,weatherlink.com 1.10,2013-12-05 17:22:00,
2013-12-05 10:37:00,25.0,22.0,29.79,East,82,1.0,10.0,89,0.00,,,0.00,weatherlink.com 1.10,2013-12-05 17:37:00,
2013-12-05 10:52:00,24.7,22.0,29.80,East,96,5.0,7.0,89,0.00,,,0.00,weatherlink.com 1.10,2013-12-05 17:52:00,
2013-12-05 11:07:00,24.3,21.0,29.80,East,94,7.0,10.0,88,0.00,,,0.00,weatherlink.com 1.10,2013-12-05 18:07:00,
2013-12-05 11:22:00,24.8,22.0,29.80,NE,49,7.0,10.0,90,0.00,,,0.00,weatherlink.com 1.10,2013-12-05 18:22:00,
2013-12-05 11:37:00,26.2,24.0,29.80,ENE,72,0.0,8.0,91,0.00,,,0.00,weatherlink.com 1.10,2013-12-05 18:37:00,
2013-12-05 11:52:00,27.2,25.0,29.79,ENE,76,0.0,4.0,91,0.00,,,0.00,weatherlink.com 1.10,2013-12-05 18:52:00,
2013-12-05 12:07:00,28.0,26.0,29.79,East,94,5.0,6.0,91,0.00,,,0.00,weatherlink.com 1.10,2013-12-05 19:07:00,
2013-12-05 12:22:00,27.6,25.0,29.78,NE,53,4.0,7.0,90,0.00,,,0.00,weatherlink.com 1.10,2013-12-05 19:22:00,
2013-12-05 12:37:00,27.9,26.0,29.78,East,97,2.0,6.0,91,0.00,,,0.00,weatherlink.com 1.10,2013-12-05 19:37:00,
2013-12-05 12:52:00,28.6,26.0,29.77,ENE,60,2.0,5.0,90,0.00,,,0.00,weatherlink.com 1.10,2013-12-05 19:52:00,
2013-12-05 13:07:00,29.0,26.0,29.76,NE,51,4.0,5.0,88,0.00,,,0.00,weatherlink.com 1.10,2013-12-05 20:07:00,
2013-12-05 13:22:00,29.3,26.0,29.77,NE,48,0.0,7.0,87,0.00,,,0.00,weatherlink.com 1.10,2013-12-05 20:22:00,
2013-12-05 13:37:00,29.7,26.0,29.77,ENE,63,3.0,8.0,85,0.00,,,0.00,weatherlink.com 1.10,2013-12-05 20:37:00,
2013-12-05 13:52:00,30.1,26.0,29.77,East,91,5.0,7.0,84,0.00,,,0.00,weatherlink.com 1.10,2013-12-05 20:52:00,
2013-12-05 14:07:00,29.6,25.0,29.77,ENE,69,7.0,10.0,83,0.00,,,0.00,weatherlink.com 1.10,2013-12-05 21:07:00,
2013-12-05 14:22:00,30.3,27.0,29.78,NNW,340,0.0,8.0,86,0.01,,,0.01,weatherlink.com 1.10,2013-12-05 21:22:00,
2013-12-05 14:37:00,30.0,25.0,29.78,NNE,23,0.0,7.0,83,0.01,,,0.01,weatherlink.com 1.10,2013-12-05 21:37:00,
2013-12-05 14:52:00,30.3,25.0,29.79,North,5,4.0,6.0,82,0.01,,,0.01,weatherlink.com 1.10,2013-12-05 21:52:00,
2013-12-05 15:07:00,29.3,24.0,29.79,NE,53,0.0,6.0,82,0.01,,,0.01,weatherlink.com 1.10,2013-12-05 22:07:00,
2013-12-05 15:22:00,29.4,26.0,29.79,NNE,18,0.0,5.0,86,0.01,,,0.02,weatherlink.com 1.10,2013-12-05 22:22:00,
2013-12-05 15:37:00,28.5,25.0,29.80,North,5,4.0,5.0,86,0.02,,,0.03,weatherlink.com 1.10,2013-12-05 22:37:00,
2013-12-05 15:52:00,27.3,24.0,29.81,NNW,333,3.0,7.0,87,0.02,,,0.03,weatherlink.com 1.10,2013-12-05 22:52:00,
2013-12-05 16:07:00,27.2,24.0,29.82,North,5,2.0,3.0,87,0.02,,,0.03,weatherlink.com 1.10,2013-12-05 23:07:00,
2013-12-05 16:22:00,27.3,24.0,29.83,North,5,0.0,5.0,87,0.01,,,0.03,weatherlink.com 1.10,2013-12-05 23:22:00,
2013-12-05 16:37:00,26.8,23.0,29.84,NNW,343,1.0,5.0,86,0.00,,,0.03,weatherlink.com 1.10,2013-12-05 23:37:00,
2013-12-05 16:52:00,25.4,22.0,29.84,NNW,333,1.0,6.0,85,0.00,,,0.03,weatherlink.com 1.10,2013-12-05 23:52:00,
2013-12-05 17:07:00,24.7,21.0,29.86,NNW,327,5.0,7.0,85,0.00,,,0.03,weatherlink.com 1.10,2013-12-06 00:07:00,
2013-12-05 17:22:00,24.2,20.0,29.86,NNW,333,1.0,7.0,85,0.00,,,0.03,weatherlink.com 1.10,2013-12-06 00:22:00,
2013-12-05 17:37:00,24.1,20.0,29.87,North,355,0.0,4.0,85,0.00,,,0.03,weatherlink.com 1.10,2013-12-06 00:37:00,
2013-12-05 17:52:00,23.8,20.0,29.88,North,355,0.0,1.0,86,0.00,,,0.03,weatherlink.com 1.10,2013-12-06 00:52:00,
2013-12-05 18:07:00,23.4,20.0,29.88,North,355,1.0,2.0,86,0.00,,,0.03,weatherlink.com 1.10,2013-12-06 01:07:00,
2013-12-05 18:22:00,23.0,19.0,29.89,NNW,346,2.0,5.0,86,0.00,,,0.03,weatherlink.com 1.10,2013-12-06 01:22:00,
2013-12-05 18:37:00,22.5,19.0,29.91,NNW,337,2.0,5.0,85,0.00,,,0.03,weatherlink.com 1.10,2013-12-06 01:37:00,
2013-12-05 18:52:00,21.9,18.0,29.91,NNW,337,0.0,4.0,85,0.00,,,0.03,weatherlink.com 1.10,2013-12-06 01:52:00,
2013-12-05 19:07:00,21.4,18.0,29.92,NNW,337,1.0,3.0,85,0.00,,,0.03,weatherlink.com 1.10,2013-12-06 02:07:00,
2013-12-05 19:23:00,20.9,17.0,29.93,NNW,337,1.0,1.0,86,0.00,,,0.03,weatherlink.com 1.10,2013-12-06 02:23:00,
2013-12-05 19:38:00,20.5,17.0,29.93,NNW,337,0.0,5.0,85,0.00,,,0.03,weatherlink.com 1.10,2013-12-06 02:38:00,
2013-12-05 19:53:00,20.0,16.0,29.93,NNW,337,0.0,3.0,85,0.00,,,0.03,weatherlink.com 1.10,2013-12-06 02:53:00,
2013-12-05 20:08:00,19.8,16.0,29.94,NNW,328,0.0,6.0,85,0.00,,,0.03,weatherlink.com 1.10,2013-12-06 03:08:00,
2013-12-05 20:23:00,19.4,15.0,29.95,NNW,327,0.0,5.0,84,0.00,,,0.03,weatherlink.com 1.10,2013-12-06 03:23:00,
2013-12-05 20:38:00,19.1,15.0,29.95,NNW,327,0.0,4.0,85,0.00,,,0.03,weatherlink.com 1.10,2013-12-06 03:38:00,
2013-12-05 20:53:00,18.8,15.0,29.96,NNW,327,0.0,0.0,84,0.00,,,0.03,weatherlink.com 1.10,2013-12-06 03:53:00,
2013-12-05 21:08:00,18.5,15.0,29.96,NNW,327,0.0,0.0,84,0.00,,,0.03,weatherlink.com 1.10,2013-12-06 04:08:00,
2013-12-05 21:23:00,18.3,15.0,29.97,NNW,327,0.0,0.0,85,0.00,,,0.03,weatherlink.com 1.10,2013-12-06 04:23:00,
2013-12-05 21:38:00,18.0,14.0,29.98,NNW,327,0.0,0.0,85,0.00,,,0.03,weatherlink.com 1.10,2013-12-06 04:38:00,
2013-12-05 21:53:00,17.9,14.0,29.99,NNW,327,0.0,0.0,85,0.00,,,0.03,weatherlink.com 1.10,2013-12-06 04:53:00,
2013-12-05 22:08:00,17.8,14.0,29.99,NNW,327,0.0,3.0,85,0.00,,,0.03,weatherlink.com 1.10,2013-12-06 05:08:00,
2013-12-05 22:23:00,17.4,13.0,30.00,NNW,331,0.0,6.0,84,0.00,,,0.03,weatherlink.com 1.10,2013-12-06 05:23:00,
2013-12-05 22:38:00,16.9,13.0,30.01,NNW,333,2.0,4.0,84,0.00,,,0.03,weatherlink.com 1.10,2013-12-06 05:38:00,
2013-12-05 22:53:00,16.7,13.0,30.02,NNW,333,0.0,4.0,85,0.00,,,0.03,weatherlink.com 1.10,2013-12-06 05:53:00,
2013-12-05 23:08:00,16.2,12.0,30.02,NNW,335,0.0,2.0,84,0.00,,,0.03,weatherlink.com 1.10,2013-12-06 06:08:00,
2013-12-05 23:23:00,16.1,12.0,30.03,NNW,335,0.0,0.0,85,0.00,,,0.03,weatherlink.com 1.10,2013-12-06 06:23:00,
2013-12-05 23:38:00,15.7,11.0,30.04,NNW,337,2.0,5.0,83,0.00,,,0.03,weatherlink.com 1.10,2013-12-06 06:38:00,
2013-12-05 23:53:00,15.3,11.0,30.04,NNW,329,3.0,5.0,83,0.00,,,0.03,weatherlink.com 1.10,2013-12-06 06:53:00,